When you browse on this site, cookies collect data to enhance your experience and personalize the content and advertising you see.
Visit our Privacy Policy to learn more. By continuing to use the site, you agree to this use of cookies and data.
  • In Romania
  • List of Countries
  • For 7 days
  • Water Temperature
  • Weather Map
  • Weather Widgets
  • user-avatar
    Login

    Hourly Weather Tivrov

    Today, 17 January, Friday

    Time Temperature Precipitation Wind Pressure Humidity
    00:00 -2°C° 0 mm 3 mps 748 mmHg 93%
    01:00 -2°C° 0 mm 3 mps 748 mmHg 94%
    02:00 -2°C° 0 mm 2 mps 748 mmHg 95%
    03:00 -2°C° 0 mm 2 mps 748 mmHg 95%
    04:00 -2°C° 0 mm 2 mps 748 mmHg 96%
    05:00 -2°C° 0 mm 2 mps 748 mmHg 96%
    06:00 -2°C° 0 mm 2 mps 748 mmHg 96%
    07:00 -2°C° 0 mm 2 mps 749 mmHg 95%
    08:00 -3°C° 0 mm 2 mps 749 mmHg 95%
    09:00 -2°C° 0 mm 2 mps 749 mmHg 90%
    10:00 -1°C° 0 mm 2 mps 749 mmHg 84%
    11:00 +2°C° 0 mm 1 mps 749 mmHg 79%
    12:00 +3°C° 0 mm 1 mps 749 mmHg 75%
    13:00 +4°C° 0 mm 1 mps 749 mmHg 70%
    14:00 +3°C° 0 mm 1 mps 749 mmHg 68%
    15:00 +2°C° 0 mm 1 mps 749 mmHg 73%
    16:00 +1°C° 0 mm 1 mps 748 mmHg 79%
    17:00 +1°C° 0 mm 1 mps 748 mmHg 84%
    18:00 0°C° 0 mm 1 mps 748 mmHg 85%
    19:00 0°C° 0 mm 1 mps 748 mmHg 86%
    20:00 -2°C° 0 mm 2 mps 749 mmHg 87%
    21:00 -2°C° 0 mm 2 mps 748 mmHg 88%
    22:00 -2°C° 0 mm 2 mps 748 mmHg 90%
    23:00 -3°C° 0 mm 2 mps 748 mmHg 91%

    Tomorrow, 18 January, Saturday

    Time Temperature Precipitation Wind Pressure Humidity
    00:00 -3°C° 0 mm 2 mps 747 mmHg 91%
    01:00 -3°C° 0 mm 2 mps 747 mmHg 92%
    02:00 -3°C° 0 mm 2 mps 747 mmHg 93%
    03:00 -3°C° 0 mm 2 mps 747 mmHg 93%
    04:00 -4°C° 0 mm 3 mps 746 mmHg 93%
    05:00 -4°C° 0 mm 3 mps 746 mmHg 93%
    06:00 -4°C° 0 mm 3 mps 746 mmHg 94%
    07:00 -4°C° 0 mm 3 mps 746 mmHg 94%
    08:00 -4°C° 0 mm 3 mps 746 mmHg 95%
    09:00 -4°C° 0 mm 4 mps 746 mmHg 91%
    10:00 -3°C° 0 mm 4 mps 746 mmHg 88%
    11:00 -4°C° 0 mm 5 mps 746 mmHg 85%
    12:00 -2°C° 0 mm 4 mps 746 mmHg 82%
    13:00 -2°C° 0 mm 4 mps 746 mmHg 80%
    14:00 -2°C° 0 mm 4 mps 745 mmHg 78%
    15:00 -2°C° 0 mm 4 mps 745 mmHg 81%
    16:00 -2°C° 0 mm 3 mps 745 mmHg 85%
    17:00 -4°C° 0 mm 3 mps 744 mmHg 89%
    18:00 -4°C° 0 mm 3 mps 744 mmHg 90%
    19:00 -4°C° 0 mm 3 mps 744 mmHg 90%
    20:00 -5°C° 0 mm 3 mps 745 mmHg 91%
    21:00 -4°C° 0 mm 2 mps 744 mmHg 91%
    22:00 -4°C° 0 mm 2 mps 744 mmHg 91%
    23:00 -4°C° 0 mm 2 mps 744 mmHg 91%

    Day after tomorrow, 19 January, Sunday

    Time Temperature Precipitation Wind Pressure Humidity
    00:00 -4°C° 0 mm 2 mps 744 mmHg 92%
    01:00 -4°C° 0 mm 2 mps 744 mmHg 92%
    02:00 -5°C° 0 mm 3 mps 745 mmHg 92%
    03:00 -4°C° 0 mm 2 mps 744 mmHg 93%
    04:00 -4°C° 0 mm 2 mps 744 mmHg 93%
    05:00 -4°C° 0 mm 2 mps 744 mmHg 94%
    06:00 -4°C° 0 mm 2 mps 744 mmHg 94%
    07:00 -5°C° 0 mm 2 mps 744 mmHg 94%
    08:00 -5°C° 0 mm 2 mps 745 mmHg 95%
    09:00 -4°C° 0 mm 2 mps 745 mmHg 91%
    10:00 -3°C° 0 mm 2 mps 745 mmHg 86%
    11:00 -1°C° 0 mm 3 mps 746 mmHg 82%
    12:00 -1°C° 0 mm 2 mps 746 mmHg 80%
    13:00 +1°C° 0 mm 2 mps 746 mmHg 77%
    14:00 +2°C° 0 mm 2 mps 746 mmHg 74%
    15:00 +1°C° 0 mm 2 mps 746 mmHg 77%
    16:00 +1°C° 0 mm 1 mps 747 mmHg 81%
    17:00 0°C° 0 mm 1 mps 747 mmHg 85%
    18:00 0°C° 0 mm 1 mps 748 mmHg 85%
    19:00 0°C° 0 mm 1 mps 748 mmHg 86%
    20:00 0°C° 0 mm 1 mps 749 mmHg 86%
    21:00 0°C° 0 mm 1 mps 749 mmHg 86%
    22:00 -2°C° 0 mm 0 mps 749 mmHg 87%
    23:00 -2°C° 0 mm 0 mps 750 mmHg 87%

    20 January, Monday

    Time Temperature Precipitation Wind Pressure Humidity
    00:00 -1°C° 0 mm 1 mps 750 mmHg 89%
    01:00 -1°C° 0 mm 1 mps 750 mmHg 90%
    02:00 -3°C° 0 mm 2 mps 751 mmHg 92%
    03:00 -3°C° 0 mm 2 mps 751 mmHg 92%
    04:00 -3°C° 0 mm 2 mps 751 mmHg 93%
    05:00 -4°C° 0 mm 2 mps 751 mmHg 94%
    06:00 -4°C° 0 mm 2 mps 751 mmHg 92%
    07:00 -4°C° 0 mm 2 mps 752 mmHg 91%
    08:00 -4°C° 0 mm 2 mps 752 mmHg 90%
    09:00 -4°C° 0 mm 3 mps 752 mmHg 85%
    10:00 -2°C° 0 mm 3 mps 753 mmHg 81%
    11:00 -2°C° 0 mm 3 mps 753 mmHg 77%
    12:00 -1°C° 0 mm 3 mps 753 mmHg 74%
    13:00 -2°C° 0 mm 4 mps 753 mmHg 72%
    14:00 -1°C° 0 mm 4 mps 753 mmHg 69%
    15:00 -2°C° 0 mm 4 mps 753 mmHg 75%
    16:00 -1°C° 0 mm 3 mps 753 mmHg 81%
    17:00 -2°C° 0 mm 3 mps 753 mmHg 87%
    18:00 -3°C° 0 mm 4 mps 754 mmHg 88%
    19:00 -3°C° 0 mm 4 mps 754 mmHg 89%
    20:00 -4°C° 0 mm 5 mps 754 mmHg 91%
    21:00 -4°C° 0 mm 5 mps 754 mmHg 92%
    22:00 -4°C° 0 mm 5 mps 754 mmHg 93%
    23:00 -4°C° 0 mm 5 mps 754 mmHg 94%

    21 January, Tuesday

    Time Temperature Precipitation Wind Pressure Humidity
    00:00 -4°C° 0 mm 5 mps 754 mmHg 92%
    01:00 -4°C° 0 mm 6 mps 754 mmHg 90%
    02:00 -4°C° 0 mm 6 mps 754 mmHg 88%
    03:00 -4°C° 0 mm 6 mps 753 mmHg 87%
    04:00 -4°C° 0 mm 6 mps 753 mmHg 86%
    05:00 -4°C° 0 mm 6 mps 753 mmHg 85%
    06:00 -5°C° 0 mm 5 mps 753 mmHg 86%
    07:00 -5°C° 0 mm 5 mps 753 mmHg 87%
    08:00 -5°C° 0 mm 5 mps 752 mmHg 88%
    09:00 -4°C° 0 mm 5 mps 752 mmHg 83%
    10:00 -2°C° 0 mm 5 mps 752 mmHg 78%
    11:00 -1°C° 0 mm 5 mps 752 mmHg 74%
    12:00 0°C° 0 mm 5 mps 751 mmHg 68%
    13:00 -1°C° 0 mm 6 mps 750 mmHg 62%
    14:00 +1°C° 0 mm 6 mps 750 mmHg 57%
    15:00 +1°C° 0 mm 5 mps 749 mmHg 60%
    16:00 0°C° 0 mm 5 mps 749 mmHg 63%
    17:00 -1°C° 0 mm 5 mps 748 mmHg 66%
    18:00 -1°C° 0 mm 5 mps 748 mmHg 68%
    19:00 -1°C° 0 mm 5 mps 747 mmHg 70%
    20:00 -1°C° 0 mm 5 mps 747 mmHg 71%
    21:00 -2°C° 0 mm 6 mps 747 mmHg 71%
    22:00 -2°C° 0 mm 6 mps 746 mmHg 72%
    23:00 -2°C° 0 mm 6 mps 746 mmHg 72%

    22 January, Wednesday

    Time Temperature Precipitation Wind Pressure Humidity
    00:00 -2°C° 0 mm 6 mps 745 mmHg 71%
    01:00 -2°C° 0 mm 6 mps 745 mmHg 70%
    02:00 -2°C° 0 mm 6 mps 744 mmHg 69%
    03:00 -2°C° 0 mm 7 mps 744 mmHg 68%
    04:00 -2°C° 0 mm 7 mps 744 mmHg 66%
    05:00 -2°C° 0 mm 7 mps 743 mmHg 65%
    06:00 -3°C° 0 mm 7 mps 743 mmHg 67%
    07:00 -3°C° 0 mm 7 mps 743 mmHg 68%
    08:00 -3°C° 0 mm 7 mps 743 mmHg 70%
    09:00 -2°C° 0 mm 7 mps 743 mmHg 72%
    10:00 -2°C° 0 mm 6 mps 743 mmHg 75%
    11:00 -1°C° 0 mm 6 mps 743 mmHg 77%
    12:00 -1°C° 0 mm 6 mps 743 mmHg 79%
    13:00 -1°C° 0 mm 6 mps 743 mmHg 80%
    14:00 -1°C° 0 mm 6 mps 743 mmHg 81%
    15:00 -1°C° 0 mm 6 mps 743 mmHg 83%
    16:00 0°C° 0 mm 5 mps 743 mmHg 86%
    17:00 -1°C° 0 mm 5 mps 742 mmHg 88%
    18:00 -1°C° 0 mm 5 mps 742 mmHg 88%
    19:00 -1°C° 0 mm 5 mps 742 mmHg 89%
    20:00 -1°C° 0 mm 5 mps 742 mmHg 89%
    21:00 -1°C° 0 mm 5 mps 742 mmHg 90%
    22:00 -1°C° 0 mm 5 mps 742 mmHg 90%
    23:00 -1°C° 0 mm 5 mps 742 mmHg 91%
    Show more